STARLINK-1917 (46767 NORAD) Tracking and Keplerian Element Data

This shows tracking and keplerian element data for the satellite.

Feedback or suggestion? Click here.




ElementValue
Catalog46767
NameSTARLINK-1917
Epoch Orbit1409
Epoch Day21.16668981
Epoch Year2021
RAAN107.1808
Inclination53.0556
Eccentricity0.0001477
Argument of Perigee105.4751
Mean Anonmoly263.4863
Mean Motion15.063763
Decay Rate0.00040223
L11 46767U 20074AE 21021.16668981 .00040223 00000-0 27056-2 0 9997
L22 46767 53.0556 107.1808 0001477 105.4751 263.4863 15.06376300 14090

Live tracking and technical data element details for STARLINK-1917 (NORAD 46767). STARLINK-1917 can be tracked NOW for your location showing map with azimuth and elevation plus other details from your city location.

Track the satellite on the map from your city or location and see movement details for azimuth, elevation, latitude, longitude, range, height, and movement on the map or in text.







IsCatalogInMostPopularTable: catalog: 46767, numindb: 33
Update: records affected: 1



GetName: 46767 STARLINK-1917

Hit Count: updated at: Fri, 22 Jan 2021 19:45:21 GMT